London-Corbin, KY

3:41 PM EST on November 19, 2017 (GMT -0500)
London-Corbin / McKee

Weather History for KLOZ - October, 2012

Change the Weather History Date:

Sunday, October 14, 2012

  Actual Average Record
Temperature  
Mean Temperature 66 °F 58 °F  
Max Temperature 72 °F 70 °F 83 °F (1962)
Min Temperature 59 °F 46 °F 25 °F (1988)
Degree Days  
Heating Degree Days 0 8  
Month to date heating degree days 126 86  
Since 1 July heating degree days 189 133  
Cooling Degree Days 1 1  
Month to date cooling degree days 4 16  
Year to date cooling degree days 1226 1183  
Growing Degree Days 15 (Base 50)    
Moisture  
Dew Point 56 °F    
Average Humidity 77    
Maximum Humidity 93    
Minimum Humidity 61    
Precipitation  
Precipitation 0.21 in 0.10 in 2.06 in (2014)
Month to date precipitation 1.81 1.33  
Year to date precipitation 38.23  
Sea Level Pressure  
Sea Level Pressure 30.00 in    
Wind  
Wind Speed 9 mph (South)    
Max Wind Speed 23 mph    
Max Gust Speed 33 mph    
Visibility 9 miles    
Events Rain    
T = Trace of Precipitation, MM = Missing Value Source: NWS Daily Summary

Daily Weather History Graph

Daily Weather History Graph

Search for Another Location

Airport or City:

Trip Planner

Search our weather history database for the weather conditions in past years. The results will help you decide how hot, cold, wet, or windy it might be!

Date:

Astronomy

Oct. 14, 2012 Rise Set
Actual Time 7:43 AM EDT 7:00 PM EDT
Civil Twilight 7:17 AM EDT 7:26 PM EDT
Nautical Twilight 6:47 AM EDT 7:56 PM EDT
Astronomical Twilight 6:17 AM EDT 8:26 PM EDT
Moon 6:42 AM EDT (10/14) 6:19 PM EDT (10/14)
Length of Visible Light 12h 08m
Length of Day
11h 16m
Waning Crescent, 1% of the Moon is Illuminated
Oct 14
Waning Crescent
Oct 15
New
Oct 21
First Quarter
Oct 29
Full
Nov 6
Last Quarter

Hourly Weather History & Observations

Time (EDT) Temp. Dew Point Humidity Pressure Visibility Wind Dir Wind Speed Gust Speed Precip Events Conditions
12:53 AM 61.0 °F 55.0 °F 81% 30.13 in 10.0 mi South 4.6 mph - N/A   Scattered Clouds
1:53 AM 61.0 °F 52.0 °F 72% 30.12 in 10.0 mi South 4.6 mph - N/A   Clear
2:53 AM 60.1 °F 51.1 °F 72% 30.10 in 10.0 mi SSE 3.5 mph - N/A   Clear
3:53 AM 60.1 °F 50.0 °F 69% 30.09 in 10.0 mi SSE 4.6 mph - N/A   Clear
4:53 AM 60.1 °F 50.0 °F 69% 30.09 in 10.0 mi South 3.5 mph - N/A   Clear
5:53 AM 60.1 °F 51.1 °F 72% 30.08 in 10.0 mi SSE 3.5 mph - N/A   Clear
6:53 AM 60.1 °F 51.1 °F 72% 30.09 in 10.0 mi South 8.1 mph - N/A   Clear
7:53 AM 59.0 °F 51.1 °F 75% 30.09 in 10.0 mi Variable 4.6 mph - N/A   Clear
8:53 AM 61.0 °F 52.0 °F 72% 30.11 in 10.0 mi Calm Calm - N/A   Clear
9:53 AM 63.0 °F 54.0 °F 72% 30.12 in 10.0 mi South 8.1 mph - N/A   Scattered Clouds
10:53 AM 66.9 °F 55.9 °F 68% 30.10 in 10.0 mi South 10.4 mph - N/A   Clear
11:53 AM 69.1 °F 57.0 °F 65% 30.07 in 10.0 mi South 17.3 mph 25.3 mph N/A   Partly Cloudy
12:53 PM 71.1 °F 57.0 °F 61% 30.04 in 10.0 mi South 21.9 mph 29.9 mph N/A   Clear
1:53 PM 71.1 °F 57.0 °F 61% 30.00 in 10.0 mi South 12.7 mph 29.9 mph N/A   Mostly Cloudy
2:53 PM 71.1 °F 57.0 °F 61% 29.95 in 10.0 mi South 17.3 mph 29.9 mph N/A   Partly Cloudy
3:53 PM 71.1 °F 57.0 °F 61% 29.93 in 10.0 mi South 11.5 mph 23.0 mph N/A   Clear
4:53 PM 69.1 °F 57.9 °F 68% 29.92 in 10.0 mi South 8.1 mph - N/A   Scattered Clouds
5:53 PM 69.1 °F 57.9 °F 68% 29.91 in 10.0 mi South 8.1 mph - N/A   Mostly Cloudy
6:53 PM 68.0 °F 57.0 °F 68% 29.90 in 10.0 mi SSW 9.2 mph - N/A   Overcast
7:53 PM 70.0 °F 57.0 °F 63% 29.89 in 10.0 mi SSW 13.8 mph 31.1 mph N/A   Overcast
8:53 PM 66.0 °F 60.1 °F 81% 29.89 in 10.0 mi SW 9.2 mph - 0.04 in   Overcast
9:49 PM 64.4 °F 62.6 °F 94% 29.91 in 2.5 mi SW 8.1 mph - 0.12 in Rain Heavy Rain
9:53 PM 64.0 °F 62.1 °F 93% 29.88 in 2.5 mi SSW 8.1 mph - 0.13 in Rain Heavy Rain
10:04 PM 64.4 °F 62.6 °F 94% 29.89 in 4.0 mi SSW 8.1 mph - 0.03 in Rain Light Rain
10:53 PM 64.9 °F 61.0 °F 87% 29.89 in 10.0 mi SW 8.1 mph - 0.04 in   Overcast
11:53 PM 64.9 °F 61.0 °F 87% 29.87 in 10.0 mi SW 11.5 mph 18.4 mph N/A   Mostly Cloudy